This is the latest recevied weather packets stored in our database for station/object N4NVD-13. If no packets are shown the sender has not sent any weather packets the latest 10 day(s).
| Time | Temp. | Humidity | Pressure | Rain* | Wind** | Luminosity | Snow |
|---|---|---|---|---|---|---|---|
| 1777930079 | 27.78° C | 69% | 1009.4 hPa | 0 mm | - | 269 W/m² | - |
| 1777929775 | 27.22° C | 71% | 1009.7 hPa | 0 mm | - | 477 W/m² | - |
| 1777929472 | 27.22° C | 69% | 1009.8 hPa | 0 mm | - | 284 W/m² | - |
| 1777929168 | 27.22° C | 70% | 1009.9 hPa | 0 mm | - | 248 W/m² | - |
| 1777928866 | 27.22° C | 70% | 1009.9 hPa | 0 mm | - | 290 W/m² | - |
| 1777928563 | 27.22° C | 70% | 1010.2 hPa | 0 mm | - | 283 W/m² | - |
| 1777928260 | 27.22° C | 69% | 1010 hPa | 0 mm | - | 390 W/m² | - |
| 1777927958 | 27.22° C | 71% | 1010.6 hPa | 0 mm | - | 626 W/m² | - |
| 1777927656 | 27.22° C | 69% | 1010.4 hPa | 0 mm | - | 453 W/m² | - |
| 1777927354 | 27.22° C | 70% | 1010.6 hPa | 0 mm | - | 482 W/m² | - |
| 1777927053 | 27.22° C | 69% | 1010.7 hPa | 0 mm | - | 701 W/m² | - |
| 1777926750 | 26.67° C | 70% | 1010.9 hPa | 0 mm | - | 317 W/m² | - |
| 1777926450 | 27.22° C | 68% | 1010.8 hPa | 0 mm | - | 697 W/m² | - |
| 1777926147 | 27.22° C | 69% | 1010.8 hPa | 0 mm | - | 818 W/m² | - |
| 1777925844 | 27.22° C | 68% | 1010.8 hPa | 0 mm | - | 866 W/m² | - |
| 1777925541 | 26.67° C | 68% | 1011.1 hPa | 0 mm | - | 888 W/m² | - |
| 1777925239 | 26.67° C | 67% | 1011.3 hPa | 0 mm | - | 309 W/m² | - |
| 1777924935 | 26.67° C | 69% | 1011.1 hPa | 0 mm | - | 499 W/m² | - |
| 1777924631 | 26.67° C | 71% | 1011.2 hPa | 0 mm | - | 785 W/m² | - |
| 1777924327 | 26.67° C | 71% | 1011.2 hPa | 0 mm | - | 630 W/m² | - |
| 1777924024 | 26.67° C | 70% | 1011.4 hPa | 0 mm | - | 219 W/m² | - |
| 1777923721 | 26.67° C | 69% | 1011.4 hPa | 0 mm | - | 363 W/m² | - |
| 1777923417 | 26.67° C | 69% | 1011.7 hPa | 0 mm | - | 358 W/m² | - |
| 1777923115 | 26.67° C | 71% | 1011.8 hPa | 0 mm | - | 576 W/m² | - |
| 1777922813 | 26.67° C | 70% | 1011.9 hPa | 0 mm | - | 379 W/m² | - |
* Rain latest hour (hover to see other rain measurements)
** Current wind speed in m/s (hover to see current wind gust speed)